Regional Weather Roundup
Issued by NWS

Home | Current Version | Previous Version | Text Only | Print | Product List | Glossary Off
Versions: 1 2 3 4 5 6 7 8 9 10 11 12 13 14 15 16 17 18 19 20 21 22 23 24 25 26 27 28 29 30 31 32 33 34 35 36 37 38 39 40 41 42 43 44 45 46 47 48 49 50

000
ASUS43 KFSD 230410
RWRSD

WEATHER ROUNDUP FOR SOUTH DAKOTA
NATIONAL WEATHER SERVICE SIOUX FALLS SD
1000 PM CST WED NOV 22 2017

NOTE: "FAIR" INDICATES FEW OR NO CLOUDS BELOW 12,000 FEET WITH NO
SIGNIFICANT WEATHER AND/OR OBSTRUCTIONS TO VISIBILITY.


SDZ001>005-009-010-012>017-230500-
NORTHWEST AND NORTH CENTRAL SOUTH DAKOTA

CITY           SKY/WX    TMP DP  RH WIND       PRES   REMARKS
BUFFALO          N/A     41  36  82 SW8       29.97S
FAITH            N/A     46  38  73 NW12      30.01R
MOBRIDGE       CLEAR     39  33  79 NW8       29.96R
$$

SDZ012>016-024>037-041>051-057-063-072>074-230500-
SOUTHWEST AND SOUTH CENTRAL SOUTH DAKOTA

CITY           SKY/WX    TMP DP  RH WIND       PRES   REMARKS
RAPID CTY ARPT CLEAR     44  35  70 W6        30.08R
PIERRE         CLEAR     43  36  76 NW8       29.99R
CUSTER         CLOUDY    49  35  58 W8        30.17R
ELLSWORTH AFB  CLEAR     46  36  68 W5        30.07R
PHILIP         CLEAR     43  38  82 SW7       30.03S
PINE RIDGE     CLOUDY    44  35  70 W3        30.11R
SPEARFISH      FAIR      57  39  51 W16G25    30.10R
WINNER         FAIR      49  38  65 W6        30.01R
$$

SDZ004>011-016>023-039-040-230500-
NORTHEAST SOUTH DAKOTA

CITY           SKY/WX    TMP DP  RH WIND       PRES   REMARKS
ABERDEEN       CLOUDY    26  21  81 N8        29.97R WCI  18
WATERTOWN      CLOUDY    24  19  81 CALM      29.91R
BROOKINGS      CLOUDY    30  21  69 SE3       29.92R
SISSETON         N/A     37  26  64 NW10      29.91R
$$

SDZ017-020-022-023-036>040-048>070-230500-
SOUTHEAST SOUTH DAKOTA

CITY           SKY/WX    TMP DP  RH WIND       PRES   REMARKS
SIOUX FALLS    CLEAR     35  22  58 SW3       29.92S
HURON          CLOUDY    28  22  78 W6        29.94R WCI  22
CHAMBERLAIN    CLEAR     47  38  70 W7        29.98R
MITCHELL       CLEAR     44  32  62 W12       29.94R
YANKTON        CLEAR     39  25  57 SW3       29.94F
$$

ABBREVIATIONS USED IN REMARKS
   TC - TEMPERATURE IN CELSIUS
  WCI - WIND CHILL INDEX
   HX - HEAT INDEX
  VSB - VISIBILITY





USA.gov is the U.S. government's official web portal to all federal, state and local government web resources and services.